Flag for Slovakia Weather past 2 weeks in Prešov, Slovakia

Now
32 °F

Passing clouds.


Feels Like: 29 °F
Forecast: 33 / 43 °F
Wind: 3 mph from Southeast

Location: Kosice - Barca

Current Time: Dec 21, 2014 at 3:09:03 AM

Latest Report: Dec 21, 2014 at 2:30 AM


Visibility: N/A

Pressure: 29.92 "Hg

Humidity: 87%

Dew point: 28 °F

Location of PrešovLocation

Historic Weather in Prešov — Graph

°F

Prešov temperature yesterday

Maximum temperature yesterday: 48 °F (at 10:30 AM)
Minimum temperature yesterday: 36 °F (at 10:30 PM)
Average temperature yesterday: 42 °F

Past Weeks' High & Low Weather Summary

 TemperatureHumidityPressure
High48 °F (Dec 20, 10:30 AM)100% (Dec 11, 7:30 AM)30.21 "Hg (Dec 11, 7:30 AM)
Low28 °F (Dec 11, 6:00 AM)57% (Dec 20, 3:30 PM)29.80 "Hg (Dec 17, 2:30 AM)
Average38 °F87%30.04 "Hg
* Reported Dec 6 2:00 AM — Dec 21 2:00 AM, Prešov, Weather by CustomWeather, © 2014

Note: Actual official high and low records may vary slightly from our data, if they occured in-between our weather recording intervals... More about our weather records

Advertising

Prešov weather history for previous 24 hours

 ConditionsComfort  
Time TempWeatherWind HumidityBarometerVisibility
2:00 AM
Dec 21
30 °FClear.3 mph86%29.92 "Hg10 mi
1:30 AM34 °FClear.7 mph87%29.92 "Hg10 mi
1:00 AM32 °FClear.7 mph87%29.89 "Hg10 mi
12:30 AM34 °FClear.7 mph87%29.89 "Hg10 mi
12:00 AM34 °FClear.3 mph87%29.92 "Hg10 mi
11:30 PM
Dec 20
36 °FClear.8 mph81%29.92 "Hg10 mi
11:00 PM36 °FClear.2 mph81%29.92 "Hg10 mi
10:30 PM36 °FClear.6 mph87%29.92 "Hg10 mi
10:00 PM37 °FClear.8 mph75%29.95 "Hg10 mi
9:30 PM39 °FClear.9 mph70%29.92 "Hg10 mi
9:00 PM39 °FClear.15 mph70%29.92 "Hg10 mi
8:30 PM39 °FClear.17 mph70%29.95 "Hg10 mi
8:00 PM39 °FPassing clouds.12 mph70%29.95 "HgN/A
7:30 PM39 °FClear.9 mph75%29.95 "Hg10 mi
7:00 PM41 °FClear.9 mph66%29.95 "Hg10 mi
6:30 PM41 °FClear.10 mph70%29.95 "Hg10 mi
6:00 PM41 °FClear.12 mph70%29.95 "Hg10 mi
5:30 PM41 °FClear.14 mph66%29.95 "Hg10 mi
5:00 PM43 °FClear.15 mph61%29.98 "Hg10 mi
4:30 PM43 °FClear.14 mph61%29.98 "Hg10 mi
4:00 PM43 °FClear.10 mph61%29.98 "Hg10 mi
3:30 PM45 °FSunny.13 mph57%29.98 "Hg10 mi
3:00 PM46 °FSunny.13 mph62%29.98 "Hg10 mi
2:30 PM48 °FPassing clouds.9 mph71%29.98 "HgN/A
2:00 PM48 °FScattered clouds.5 mph82%30.01 "HgN/A
1:30 PM46 °FPartly sunny.7 mph87%30.01 "HgN/A
1:00 PM45 °FScattered clouds.2 mph93%30.01 "HgN/A
12:30 PM45 °FScattered clouds.2 mph93%30.01 "Hg5 mi
12:00 PM45 °FScattered clouds.5 mph93%30.04 "Hg5 mi
11:30 AM46 °FScattered clouds.5 mph87%30.04 "Hg5 mi
11:00 AM46 °FScattered clouds.3 mph87%30.04 "Hg5 mi
10:30 AM48 °FPassing clouds.2 mph82%30.04 "Hg5 mi
10:00 AM46 °FFog.1 mph87%30.04 "Hg3 mi
9:30 AM43 °FFog.1 mph93%30.01 "Hg2 mi
9:00 AM39 °FFog.3 mph100%30.01 "Hg2 mi
8:30 AM37 °FSnow. Cloudy.3 mph100%30.01 "Hg3 mi
8:00 AM39 °FFog.2 mph100%29.98 "Hg2 mi
7:30 AM39 °FFog.3 mph100%29.98 "Hg2 mi
7:00 AM41 °FFog.6 mph100%29.98 "Hg1 mi
6:30 AM41 °FFog.7 mph100%29.98 "Hg3 mi
6:00 AM41 °FFog.2 mph100%29.95 "Hg2 mi
5:30 AM41 °FFog.5 mph100%29.95 "Hg3 mi
5:00 AM43 °FLight rain. Fog.9 mph93%29.95 "Hg2 mi
4:30 AM41 °FFog.2 mph93%29.92 "Hg2 mi
4:00 AM39 °FFog.2 mph100%29.92 "Hg2 mi
3:30 AM41 °FFog.7 mph100%29.92 "Hg2 mi
3:00 AM41 °FFog.6 mph100%29.92 "Hg2 mi
Weather by CustomWeather, © 2014

See weather overviewHow to use our weather pages